NOAA 17 DEB

基本信息
目录编号:
48763
目录名称:
NOAA 17 DEB
国际标识:
2002-032CY
轨道中心:
EARTH
物体状态:
已陨落(2024-06-14)
发射日期:
2002-06-24 UTC
轨道信息
数据来源: 国际轨道数据
星历时间: 2024-05-08T01:46:43+0800
半长轴: 6904.035km
偏心率: 0.0023847
轨道倾角: 98.932°
近地点辐角: 115.082°
升交点赤经: 182.709°
平近点角: 245.288°
近地点: 509.435km
远地点: 542.365km
周期: 95.151分钟
每日圈数: 15.133813
详细信息
发射场:
AFWTR
轨道高度:
LEO
数据来源:
AOE Integration Group
参考系:
TEME
时间系统:
UTC
历元类型:
SGP4
2D轨道图
3D轨道图
轨道高度分析图
轨道倾角分析图
轨道综合分析图
查看轨道综合分析图